Погода в Намюре

Бельгия     50°28′04″N   4°52′23″E
темп.,
°C
ветер,
м/с
пор.,
м/с
влажн.,
%
обл.,
%
осадки,
мм/ч
давл.,
гПа
погр.,
м
6 мая, чт
чт623:00+3юз411895 0.0 1011235
02:00+2юз51392100 0.0 1010324
05:00+3юз5119497 0.1 1009360
08:00+4юз489295 0.1 1009334
11:00+8юз5668100 0.2 10071174
14:00+9юз4462100 0.4 10051320
17:00+6юз2192100 2.6 1004832
20:00+5з249599 4.6 1004301
7 мая, пт
пт723:00+4з129099 0.9 100898
02:00+1юз39974 0.9 1009177
05:000юз39960 0.0 1011191
08:00+3зюз5119027 0.0 1013430
11:00+8зсз7869100 0.1 10151465
14:00+9зсз56595 0.2 10171369
17:00+12зсз464889 0.0 10172139
20:00+9сз36695 0.0 1018166
8 мая, сб
сб823:00+3юв0170100 0.0 102010
02:00+3ююв337752 0.0 101929
05:00+2ююв3482100 0.0 101849
08:00+6ююв4107596 0.0 1017244
11:00+11ю71157100 0.0 10151025
14:00+11ю7136995 0.1 1012838
17:00+12ю71584100 0.3 1010652
20:00+15ю71477100 0.3 1008676
9 мая, вс
вс923:00+11ю4129255 0.0 1008245
02:00+10ююв4993100 0.0 1006130
05:00+11ююв5148910 0.0 1003246
08:00+14ююв81879100 0.1 1002397
11:00+16ю81474100 0.0 1002559
14:00+21ю81368100 0.1 10011137
17:00+22ююз71268100 0.0 10001575
20:00+14юз41193100 3.0 1002455
10 мая, пн
пн1023:00+14ю6139368 0.2 1003660
02:00+13ю4109498 0.2 1002310
05:00+12юз61295100 2.3 1004740
08:00+10ююз61391100 2.9 1007651
11:00+13юз7108073 0.1 10081018
14:00+14юз6871100 0.3 10091305
17:00+14ююз3569100 0.1 1008999
20:00+13юв1278100 0.3 100814